x

Frying Pan Shoals, Nc Buoy (41013) Wave Buoy

11:50am - Wed 1st Mar 2017 All times are EST. -5 hours from GMT.

  • Sig Wave height 4.9ft
  • Swell Direction
  • Peak Period 6s
  • Average Period 5s
  • Wind
    20mph, 25mph gusts
  • Sea Temp 70°f
  • Air Temp 72°f
  • Sea Pressure 1018.8mb
  • Frying Pan Shoals, Nc Buoy
  • Frying Pan Shoals, Nc Buoy

More Historic Weather Station data

Upgrade to MSW Pro to gain access to the past 30 days of data for over 8000 Wavebouys and Weather Stations around the globe.

Join Pro

Comparision Forecast

View Surf forecast
   
Wed 03/01 11:50am 5ft 6s 5s 20 25 mph 1018.8mb 70f 72f
11:40am 5ft  -  5s 20 27 mph 1018.9mb 70f 72f
11:30am  -   -   -  20 27 mph 1018.9mb 70f 72f
11:20am  -   -   -  22 27 mph 1019mb 70f 72f
11:10am  -   -   -  20 27 mph 1019.3mb 70f 72f
11:00am  -   -   -  20 25 mph 1019.3mb 70f 72f
10:50am 5ft 6s 5s 20 25 mph 1019.4mb 70f 72f
10:40am 5ft  -  5s 20 27 mph 1019.3mb 70f 72f
10:30am  -   -   -  20 25 mph 1019.4mb 70f 72f
10:20am  -   -   -  20 25 mph 1019.5mb 70f 72f
10:10am  -   -   -  20 25 mph 1019.5mb 70f 72f
10:00am  -   -   -  20 27 mph 1019.5mb 70f 72f
9:50am 4.5ft 6s 4s 22 27 mph 1019.5mb 70f 72f
9:40am  -   -   -  20 27 mph 1019.6mb 70f 72f
9:30am  -   -   -  20 25 mph 1019.6mb 70f 72f
9:20am  -   -   -  22 25 mph 1019.5mb 70f 72f
9:10am  -   -   -  20 25 mph 1019.6mb 70f 72f
9:00am  -   -   -  22 27 mph 1019.8mb 70f 72f
8:50am 5ft 6s 5s 22 27 mph 1019.5mb - -
8:40am 5ft  -  5s 22 27 mph 1019.8mb 70f 72f
8:30am  -   -   -  20 27 mph 1019.9mb 70f 72f
8:20am  -   -   -  20 27 mph 1020mb 70f 72f
8:10am  -   -   -  20 25 mph 1020mb 70f 72f
8:00am  -   -   -  20 27 mph 1020mb 70f 72f
7:50am 4.5ft 6s 4s 20 25 mph 1020.1mb 70f 72f
7:40am  -   -   -  22 29 mph 1020mb 69f 72f
7:30am  -   -   -  20 25 mph 1019.9mb 69f 72f
7:20am  -   -   -  22 25 mph 1019.8mb 69f 72f
7:10am  -   -   -  20 25 mph 1019.5mb 69f 72f
7:00am  -   -   -  20 25 mph 1019.5mb 69f 72f
6:50am 4.5ft 6s 4s 20 25 mph 1019.5mb 69f 72f
6:40am 4.5ft  -  4s 20 27 mph 1019.6mb 69f 72f
6:30am  -   -   -  20 27 mph 1019.8mb 69f 72f
6:20am  -   -   -  20 25 mph 1019.8mb 69f 72f
6:10am  -   -   -  20 25 mph 1019.8mb 69f 72f
6:00am  -   -   -  18 22 mph 1019.6mb 69f 72f
5:50am 4.5ft 6s 4s 20 25 mph 1019.9mb 69f 72f
5:40am 4.5ft  -  4s 18 22 mph 1019.9mb 69f 71f
5:30am  -   -   -  18 22 mph 1019.8mb 69f 71f
5:20am  -   -   -  18 22 mph 1019.9mb 69f 71f
5:10am  -   -   -  18 22 mph 1019.8mb - -
5:00am  -   -   -  18 22 mph 1019.9mb 69f 71f
4:50am 4.5ft 6s 5s 18 22 mph 1019.9mb 69f 71f
4:40am  -   -   -  18 20 mph 1019.9mb 68f 71f
4:30am  -   -   -  18 22 mph 1019.9mb 68f 71f
4:20am  -   -   -  18 20 mph 1019.9mb 68f 71f
4:10am  -   -   -  16 22 mph 1019.9mb 68f 71f
4:00am  -   -   -  18 20 mph 1019.9mb 68f 71f
3:50am 4.5ft 6s 5s 16 20 mph 1020.3mb 68f 71f
3:40am 4.5ft  -  5s 16 20 mph 1020.4mb 68f 71f
3:30am  -   -   -  16 20 mph 1020.1mb 68f 71f
3:20am  -   -   -  16 18 mph 1020.3mb 68f 71f
3:10am  -   -   -  16 18 mph 1020.4mb 68f 71f
3:00am  -   -   -  16 20 mph 1020.4mb 68f 71f
2:50am 4.5ft 6s 5s 16 20 mph 1020.6mb 68f 71f
2:40am  -   -   -  16 20 mph 1020.8mb 68f 71f
2:30am  -   -   -  16 20 mph 1021mb 68f 71f
2:20am  -   -   -  16 18 mph 1021mb 69f 71f
2:10am  -   -   -  16 18 mph 1021.4mb 69f 71f
2:00am  -   -   -  13 18 mph 1021.6mb 69f 71f
1:50am 4ft  -  5s 13 18 mph 1021.6mb 69f 71f
1:44am 4ft 6s 5s  -  mph - - -
1:40am 4ft  -  5s 13 18 mph 1021.8mb 69f 71f
1:30am  -   -   -  13 18 mph 1022mb 69f 71f
1:20am  -   -   -  13 16 mph 1022.3mb 69f 71f
1:10am  -   -   -  13 16 mph 1022.5mb 69f 71f
1:00am  -   -   -  13 18 mph 1022.3mb 69f 71f
12:50am 4.5ft 7s 5s 13 18 mph 1022.3mb 70f 72f
12:40am  -   -   -  13 16 mph 1022.4mb 69f 72f
12:30am  -   -   -  13 16 mph 1022.4mb 70f 72f
12:20am  -   -   -  13 16 mph 1022.5mb 70f 72f
12:10am  -   -   -  13 16 mph 1022.5mb 70f 72f
12:00am  -   -   -  13 16 mph 1022.5mb 70f 72f
Tue 02/28 11:50pm 4.5ft 7s 5s 16 18 mph 1022.5mb 70f 72f
11:40pm 4.5ft  -  5s 16 20 mph 1022.5mb 70f 72f
11:30pm  -   -   -  16 20 mph 1022.5mb 70f 72f
11:20pm  -   -   -  16 18 mph 1022.5mb 70f 72f
11:10pm  -   -   -  18 20 mph 1022.5mb 70f 72f
11:00pm  -   -   -  18 20 mph 1022.6mb 70f 72f
10:50pm 5ft 6s 5s 16 20 mph 1022.5mb 71f 72f
10:40pm 5ft  -  5s 16 20 mph 1022.5mb 71f 72f
10:30pm  -   -   -  18 20 mph 1022.5mb 71f 72f
10:20pm  -   -   -  16 20 mph 1022.5mb 71f 72f
10:10pm  -   -   -  13 18 mph 1022.5mb 71f 72f
10:00pm  -   -   -  13 16 mph 1023mb 71f 72f
9:50pm 4.5ft 6s 5s 11 13 mph 1023mb 71f 71f
9:40pm 4.5ft  -  5s 11 13 mph 1022.9mb 71f 72f
9:30pm  -   -   -  11 13 mph 1022.9mb 71f 72f
9:20pm  -   -   -  11 13 mph 1022.9mb 71f 72f
9:10pm  -   -   -  11 13 mph 1022.9mb 71f 72f
9:00pm  -   -   -  11 16 mph 1022.8mb 71f 72f
8:50pm 4.5ft 6s 5s 13 16 mph 1022.9mb 71f 72f
8:40pm 4.5ft  -  5s 13 18 mph 1022.8mb 71f 72f
8:30pm  -   -   -  13 16 mph 1023mb 71f 72f
8:20pm  -   -   -  13 18 mph 1023mb 71f 72f
8:10pm  -   -   -  16 18 mph 1022.9mb 71f 72f
8:00pm  -   -   -  16 20 mph 1023mb 71f 72f
7:50pm 4.5ft 7s 5s 16 18 mph 1023mb 71f 72f
7:40pm 4.5ft  -  5s 16 18 mph 1023mb 71f 72f
7:30pm  -   -   -  13 16 mph 1023mb 70f 72f
7:20pm  -   -   -  13 16 mph 1023mb 70f 71f
7:10pm  -   -   -  13 16 mph 1023.1mb 70f 71f
7:00pm  -   -   -  13 18 mph 1023.1mb 70f 71f
6:50pm 4.5ft 6s 5s 16 18 mph 1023.3mb 70f 71f
6:10pm  -   -   -  18 22 mph 1023.5mb 70f 71f
6:00pm  -   -   -  16 20 mph 1023.5mb 70f 71f
5:50pm 5ft 6s 5s 18 22 mph 1023.6mb 70f 70f
5:40pm 5ft  -  5s 18 22 mph 1023.5mb 70f 70f
5:30pm  -   -   -  18 22 mph 1023.6mb 70f 70f
5:20pm  -   -   -  18 25 mph 1023.5mb 70f 70f
5:10pm  -   -   -  18 22 mph 1023.6mb 70f 70f
5:00pm  -   -   -  18 27 mph 1023.6mb 69f 70f
4:50pm 5.5ft 6s 5s 20 22 mph 1023.6mb 69f 70f
4:40pm  -   -   -  20 27 mph 1023.6mb 69f 70f
4:30pm  -   -   -  20 27 mph 1023.5mb 69f 70f
4:20pm  -   -   -  18 25 mph 1023.5mb 69f 70f
4:10pm  -   -   -  20 25 mph 1023.8mb 69f 70f
4:00pm  -   -   -  18 22 mph 1023.9mb 69f 70f
3:50pm 5ft 6s 5s 16 20 mph 1023.6mb 69f 70f
3:40pm 5ft  -  5s 20 25 mph 1023.6mb 69f 70f
3:30pm  -   -   -  20 27 mph 1023.6mb 69f 70f
3:20pm  -   -   -  16 20 mph 1023.6mb 69f 70f
3:10pm  -   -   -  18 22 mph 1024.2mb 69f 70f
3:00pm  -   -   -  18 22 mph 1024.3mb 69f 71f
2:50pm 5.5ft 7s 5s 13 18 mph 1024.2mb 69f 71f
2:40pm  -   -   -  13 18 mph 1024mb 69f 71f
2:30pm  -   -   -  13 16 mph 1024mb 69f 71f
2:20pm  -   -   -  13 16 mph 1024mb 69f 71f
2:10pm  -   -   -  11 16 mph 1024.2mb 69f 71f
2:00pm  -   -   -  11 16 mph 1024.2mb 69f 71f
1:50pm 4.5ft 7s 5s 11 16 mph 1024.3mb 69f 71f
1:40pm 4.5ft  -  5s 11 13 mph 1024.5mb 69f 71f
1:30pm  -   -   -  11 13 mph 1024.8mb - -
1:20pm  -   -   -  11 13 mph 1025mb 69f 70f
1:10pm  -   -   -  11 16 mph 1025.3mb 69f 70f
1:00pm  -   -   -  9 13 mph 1025.7mb 69f 70f
12:50pm 5ft 7s 6s 9 11 mph 1025.8mb 69f 70f
12:40pm 5ft  -  6s 9 11 mph 1026mb 69f 70f
12:30pm  -   -   -  9 11 mph 1026.2mb 70f 70f
12:20pm  -   -   -  9 11 mph 1026.3mb 70f 70f
12:10pm  -   -   -  9 11 mph 1026.5mb 70f 70f
12:00pm  -   -   -  7 11 mph 1026.7mb 70f 70f
11:50am 4.5ft 6s 5s 7 9 mph 1026.8mb 70f 70f
11:40am 4.5ft  -  5s 7 9 mph 1026.8mb 70f 70f
11:30am  -   -   -  4 7 mph 1027mb 70f 70f
11:20am  -   -   -  7 9 mph 1026.8mb 70f 70f
11:10am  -   -   -  7 9 mph 1027mb 70f 70f
11:00am  -   -   -  7 9 mph 1027mb 70f 69f
10:50am 4.5ft 7s 5s 7 9 mph 1027mb 70f 69f
10:40am  -   -   -  7 9 mph 1027mb 70f 69f
10:30am  -   -   -  7 9 mph 1026.8mb 70f 69f
10:20am  -   -   -  7 9 mph 1027mb 70f 69f
10:10am  -   -   -  7 9 mph 1027.2mb 70f 69f
10:00am  -   -   -  7 11 mph 1027.2mb 70f 69f
9:50am 4.5ft 6s 5s 7 11 mph 1027mb 70f 69f
9:40am 4.5ft  -  5s 7 11 mph 1027mb 70f 69f
9:30am  -   -   -  9 11 mph 1026.8mb 70f 69f
9:20am  -   -   -  9 11 mph 1026.7mb 70f 69f
9:10am  -   -   -  9 11 mph 1026.5mb 70f 69f
9:00am  -   -   -  9 13 mph 1026.5mb 70f 69f
8:50am 4.5ft 6s 5s 11 16 mph 1026.2mb 71f 70f
8:40am 4.5ft  -  5s 13 18 mph 1025.8mb 71f 70f
8:30am  -   -   -  13 18 mph 1026mb 71f 69f
8:20am  -   -   -  13 18 mph 1025.8mb - -
8:10am  -   -   -  13 20 mph 1025.5mb 71f 71f
8:00am  -   -   -  11 13 mph 1025.5mb - -
7:50am 5ft 6s 5s 11 16 mph 1025.3mb 71f 72f
7:40am  -   -   -  11 16 mph 1025.5mb 71f 72f
7:30am  -   -   -  11 16 mph 1025.3mb 71f 72f
7:20am  -   -   -  13 18 mph 1025mb 71f 72f
7:10am  -   -   -  16 20 mph 1025mb 71f 72f
7:00am  -   -   -  16 20 mph 1024.5mb 71f 72f
6:50am 5ft 6s 5s 16 20 mph 1024.7mb 71f 72f
6:40am 5ft  -  5s 16 20 mph 1024.8mb 71f 72f
6:30am  -   -   -  18 22 mph 1024.5mb 71f 72f
6:20am  -   -   -  18 22 mph 1024.7mb 71f 72f
6:10am  -   -   -  20 25 mph 1024.8mb 71f 72f
6:00am  -   -   -  18 22 mph 1024.7mb 71f 72f
5:50am 5ft 6s 5s 18 25 mph 1024.8mb 71f 72f
5:40am 5ft  -  5s 18 22 mph 1024.8mb 71f 72f
5:30am  -   -   -  16 20 mph 1024.8mb 71f 72f
5:20am  -   -   -  16 20 mph 1025mb 71f 72f
5:10am  -   -   -  18 22 mph 1025mb 71f 72f
5:00am  -   -   -  18 20 mph 1024.8mb 71f 72f
4:50am 5ft 5s 5s 18 22 mph 1024.8mb 71f 72f
4:40am 5ft  -  5s 18 22 mph 1024.8mb 71f 72f
4:30am  -   -   -  18 22 mph 1025mb 71f 72f
4:20am  -   -   -  18 22 mph 1025mb 71f 72f
4:10am  -   -   -  18 22 mph 1025mb 70f 72f
4:00am  -   -   -  18 22 mph 1025mb 70f 72f
3:50am 5.5ft 5s 5s 20 25 mph 1025mb 70f 71f
3:40am  -   -   -  20 25 mph 1025.2mb 70f 71f
3:30am  -   -   -  20 25 mph 1025.2mb 70f 71f
3:20am  -   -   -  20 25 mph 1025.3mb 70f 71f
3:10am  -   -   -  22 27 mph 1025.3mb 70f 71f
3:00am  -   -   -  20 25 mph 1025.3mb 70f 71f
2:50am 5.5ft 5s 5s 22 27 mph 1025.7mb 70f 71f
2:40am  -   -   -  20 27 mph 1025.8mb 70f 71f
2:30am  -   -   -  22 29 mph 1025.8mb 70f 71f
2:20am  -   -   -  22 29 mph 1025.8mb 70f 71f
2:10am  -   -   -  22 29 mph 1025.5mb 70f 71f
2:00am  -   -   -  22 29 mph - 70f 71f
1:50am 5ft 5s 5s 22 29 mph 1025.5mb 70f 70f
1:40am  -   -   -  25 31 mph 1025.3mb 70f 71f
1:30am  -   -   -  25 31 mph 1025.2mb 70f 71f
1:10am  -   -   -  25 29 mph 1025.2mb 70f 71f
1:00am  -   -   -  25 29 mph 1025.5mb 70f 71f
12:50am 4.5ft 5s 4s 25 29 mph 1025.5mb 70f 71f
12:40am  -   -   -  22 29 mph 1025.8mb 70f 70f
12:30am  -   -   -  22 29 mph 1026mb 70f 71f
12:20am  -   -   -  22 29 mph 1026mb 70f 70f
12:10am  -   -   -  22 27 mph 1026mb 70f 70f
12:00am  -   -   -  22 27 mph 1026.2mb 70f 70f
Mon 02/27 11:50pm 4ft 8s 4s 20 27 mph 1026.2mb 70f 70f
11:40pm 4ft  -  4s 22 25 mph 1026.3mb 70f 70f
11:30pm  -   -   -  20 25 mph 1026.3mb 70f 70f
11:20pm  -   -   -  22 27 mph 1026.5mb 70f 70f
11:10pm  -   -   -  22 27 mph 1026.5mb 70f 70f
11:00pm  -   -   -  22 27 mph 1026.5mb 70f 70f
10:50pm 3.5ft 8s 5s 22 29 mph 1026.3mb 70f 70f
10:40pm 3.5ft  -  5s 20 27 mph 1027mb 70f 70f
10:30pm  -   -   -  18 20 mph 1027.5mb 70f 70f
10:20pm  -   -   -  18 20 mph 1027.8mb 70f 69f
10:10pm  -   -   -  16 20 mph 1027.8mb 70f 70f
10:00pm  -   -   -  16 18 mph 1027.8mb 70f 69f
9:50pm 3.5ft 8s 5s 16 20 mph 1027.7mb 70f 69f
9:40pm 3.5ft  -  5s 16 18 mph 1027.7mb 70f 69f
9:30pm  -   -   -  16 20 mph 1027.5mb 70f 69f
9:20pm  -   -   -  16 18 mph 1027.5mb 70f 69f
9:10pm  -   -   -  13 18 mph 1027.7mb 70f 69f
9:00pm  -   -   -  13 16 mph 1027.8mb 70f 69f
8:50pm 3.5ft 8s 5s 13 16 mph 1028mb 70f 69f
8:40pm  -   -   -  13 16 mph 1028.2mb 70f 69f
8:30pm  -   -   -  13 16 mph 1028.3mb 70f 69f
8:20pm  -   -   -  11 16 mph 1028.5mb 70f 69f
8:10pm  -   -   -  9 13 mph 1028.7mb 70f 69f
8:00pm  -   -   -  11 13 mph 1028.5mb 70f 69f
7:50pm 3.5ft 8s 5s 11 13 mph 1028.5mb 70f 69f
7:40pm 3.5ft  -  5s 9 11 mph 1028.5mb 70f 69f
7:30pm  -   -   -  9 13 mph 1028.5mb 70f 69f
7:20pm  -   -   -  7 9 mph 1028.5mb 70f 69f
7:10pm  -   -   -  9 11 mph 1028.5mb 70f 69f
7:00pm  -   -   -  7 9 mph 1028.5mb 70f 68f
6:50pm 3.5ft 5s 5s 7 11 mph 1028.3mb 70f 68f
6:40pm 3.5ft  -  5s 9 11 mph 1028.3mb 70f 68f
6:30pm  -   -   -  9 11 mph 1028.3mb 70f 68f
6:20pm  -   -   -  9 13 mph 1028mb 70f 68f
6:10pm  -   -   -  9 13 mph 1028mb 70f 68f
6:00pm  -   -   -  9 11 mph 1028mb 70f 68f
5:50pm 3.5ft 5s 4s 9 13 mph 1028mb 70f 68f
5:40pm 3.5ft  -  4s 9 13 mph 1028mb 69f 68f
5:30pm  -   -   -  9 11 mph 1028mb 69f 68f
5:20pm  -   -   -  11 16 mph 1027.8mb 69f 68f
5:10pm  -   -   -  11 20 mph 1028mb 69f 68f
5:00pm  -   -   -  11 13 mph 1027.8mb 69f 68f
4:50pm 3.5ft 8s 4s 11 16 mph 1027.8mb 69f 68f
4:40pm 3.5ft  -  4s 11 16 mph 1027.8mb 69f 68f
4:30pm  -   -   -  11 13 mph 1028mb 69f 68f
4:20pm  -   -   -  11 16 mph 1027.8mb 69f 68f
4:10pm  -   -   -  13 20 mph 1027.5mb 69f 68f
4:00pm  -   -   -  13 16 mph 1027.5mb 69f 68f
3:50pm 3.5ft 5s 4s 13 18 mph 1027.5mb 69f 67f
3:40pm 3.5ft  -  4s 11 16 mph 1027.5mb 69f 68f
3:30pm  -   -   -  13 16 mph 1027.8mb - -
3:20pm  -   -   -  13 16 mph 1027.7mb 69f 68f
3:10pm  -   -   -  11 16 mph 1027.7mb 69f 67f
3:00pm  -   -   -  11 16 mph 1028mb 69f 67f
2:50pm 3.5ft 8s 4s 11 16 mph 1027.8mb 69f 67f
2:40pm 3.5ft  -  4s 11 16 mph 1027.8mb 69f 67f
2:30pm  -   -   -  13 18 mph 1027.8mb 69f 67f
2:20pm  -   -   -  13 18 mph 1027.8mb 69f 67f
2:10pm  -   -   -  13 16 mph 1027.8mb 69f 67f
2:00pm  -   -   -  13 18 mph 1028mb 69f 67f
1:50pm 4ft 5s 4s 13 18 mph 1028mb 69f 67f
1:40pm 4ft  -  4s 13 16 mph 1028mb 69f 67f
1:30pm  -   -   -  13 18 mph 1028.3mb 69f 67f
1:20pm  -   -   -  11 16 mph 1028.5mb 69f 67f
1:10pm  -   -   -  13 18 mph 1028.8mb 69f 67f
1:00pm  -   -   -  13 18 mph 1028.8mb 69f 67f
12:50pm 3.5ft 5s 5s 13 18 mph 1028.8mb 69f 67f
12:40pm  -   -   -  13 16 mph 1028.8mb 69f 67f
12:30pm  -   -   -  13 20 mph 1028.7mb 69f 67f
12:20pm  -   -   -  13 18 mph 1028.8mb 69f 67f
12:10pm  -   -   -  13 18 mph 1029.3mb 69f 66f
12:00pm  -   -   -  16 18 mph 1029.5mb 69f 67f
11:50am 4ft 8s 5s 13 18 mph 1029.5mb 69f 66f
11:40am  -   -   -  16 20 mph 1029.7mb 69f 66f
11:30am  -   -   -  16 20 mph 1029.3mb 69f 66f
11:20am  -   -   -  16 20 mph 1029.3mb 69f 66f
11:10am  -   -   -  16 22 mph 1029.2mb 69f 66f
11:00am  -   -   -  16 20 mph 1029.2mb 69f 66f
10:50am 3.5ft 4s 5s 16 22 mph 1029mb 69f 66f
10:40am 3.5ft  -  5s 18 22 mph 1028.8mb 69f 66f
10:30am  -   -   -  18 25 mph 1028.8mb 69f 66f
10:20am  -   -   -  18 22 mph 1028.8mb 69f 66f
10:10am  -   -   -  18 22 mph 1028.7mb 69f 66f
10:00am  -   -   -  18 22 mph 1028.5mb 69f 65f
9:50am 3.5ft 8s 5s 18 22 mph 1028.7mb 69f 65f
9:40am 3.5ft  -  5s 18 25 mph 1028.5mb 69f 65f
9:30am  -   -   -  18 25 mph 1028.5mb 69f 65f
9:20am  -   -   -  18 25 mph 1028.3mb 69f 65f
9:10am  -   -   -  18 22 mph 1028.3mb 69f 65f
9:00am  -   -   -  20 25 mph 1028.2mb - 65f
8:50am 3ft 8s 5s 18 25 mph 1028mb 69f 64f
8:40am  -   -   -  20 27 mph 1027.8mb 69f 64f
8:30am  -   -   -  18 25 mph 1027.8mb 69f 64f
8:20am  -   -   -  16 25 mph 1028mb 69f 64f
8:10am  -   -   -  16 20 mph 1028.3mb - -
8:00am  -   -   -  16 20 mph 1028mb 69f 63f
7:50am 2.5ft 9s 5s 16 22 mph 1027.8mb 69f 63f
7:40am  -   -   -  16 20 mph 1028.2mb 69f 63f
7:30am  -   -   -  13 18 mph 1028.3mb 69f 63f
7:20am  -   -   -  13 16 mph 1028.3mb 69f 63f
7:10am  -   -   -  13 18 mph 1028.5mb 69f 62f
7:00am  -   -   -  11 16 mph 1028.5mb 69f 62f
6:50am 2.5ft 9s 5s 11 16 mph 1028.5mb 69f 62f
6:40am 2.5ft  -  5s 11 16 mph 1028.3mb 69f 62f
6:30am  -   -   -  11 13 mph 1028.3mb 69f 62f
6:20am  -   -   -  11 13 mph 1028.2mb 69f 61f
6:10am  -   -   -  9 16 mph 1028mb 69f 61f
6:00am  -   -   -  11 16 mph 1028mb 69f 61f
5:50am 2.5ft 8s 6s 11 16 mph 1027.8mb 69f 61f
5:40am 2.5ft  -  6s 9 13 mph 1027.8mb 69f 60f
5:30am  -   -   -  11 16 mph 1027.8mb 69f 60f
5:20am  -   -   -  9 16 mph 1027.8mb 69f 60f
5:10am  -   -   -  9 16 mph 1027.8mb 69f 60f
5:00am  -   -   -  11 16 mph 1027.7mb 69f 60f
4:50am 2.5ft 8s 6s 9 13 mph 1027.8mb 69f 60f
4:40am 2.5ft  -  6s 9 13 mph 1027.8mb 69f 60f
4:30am  -   -   -  9 13 mph 1027.8mb 69f 59f
4:20am  -   -   -  9 13 mph 1027.8mb 69f 59f
4:10am  -   -   -  9 13 mph 1027.7mb 69f 59f
4:00am  -   -   -  9 13 mph 1027.5mb 69f 59f
3:50am 2.5ft 8s 6s 9 11 mph 1027.3mb 69f 59f
3:40am  -   -   -  9 13 mph 1027.3mb 69f 59f
3:30am  -   -   -  9 13 mph 1027.2mb 69f 59f
3:20am  -   -   -  9 13 mph 1027mb 69f 59f
3:10am  -   -   -  9 13 mph 1027mb 69f 59f
3:00am  -   -   -  9 13 mph 1027.3mb 69f 59f
2:50am 2.5ft 9s 7s 9 11 mph 1027.3mb 69f 58f
2:40am 2.5ft  -  7s 9 13 mph 1027.3mb 69f 59f
2:30am  -   -   -  9 11 mph 1027.3mb 69f 58f
2:20am  -   -   -  9 13 mph 1027.5mb 69f 59f
2:10am  -   -   -  9 13 mph 1027.3mb 69f 59f
2:00am  -   -   -  9 13 mph 1027.5mb 69f 59f
1:50am 2.5ft 9s 7s 9 13 mph 1027.5mb 69f 59f
1:40am  -   -   -  9 11 mph 1027.5mb 69f 59f
1:30am  -   -   -  9 11 mph 1027.3mb 69f 59f
1:20am  -   -   -  9 11 mph 1027.3mb 69f 59f
1:10am  -   -   -  7 11 mph 1027.5mb 69f 59f
1:00am  -   -   -  7 11 mph 1027.5mb 69f 59f
12:50am 2.5ft 9s 6s 7 11 mph 1027.5mb 69f 59f
12:40am 2.5ft  -  6s 7 11 mph 1027.3mb 69f 59f
12:30am  -   -   -  7 9 mph 1027.3mb 69f 59f
12:20am  -   -   -  7 11 mph 1027.3mb 69f 59f
12:10am  -   -   -  7 9 mph 1027.3mb 69f 59f
12:00am  -   -   -  7 11 mph 1027mb 69f 59f
Sun 02/26 11:50pm 2.5ft 10s 6s 7 11 mph 1027mb 69f 59f
11:40pm  -   -   -  7 9 mph 1026.8mb 69f 59f
11:30pm  -   -   -  7 9 mph 1026.8mb 69f 59f
11:20pm  -   -   -  7 9 mph 1026.8mb 69f 59f
11:10pm  -   -   -  4 9 mph 1026.8mb 69f 59f
11:00pm  -   -   -  7 9 mph 1026.8mb 69f 59f
10:50pm 3ft 9s 6s 7 9 mph 1026.8mb 69f 59f
10:40pm 3ft  -  6s 7 9 mph 1026.8mb 69f 59f
10:30pm  -   -   -  4 7 mph 1026.8mb 69f 59f
10:20pm  -   -   -  7 9 mph 1026.8mb 69f 59f
10:10pm  -   -   -  4 9 mph 1026.7mb 69f 58f
10:00pm  -   -   -  4 9 mph 1026.7mb 69f 58f
9:50pm 2.5ft 8s 6s 2 7 mph 1026.5mb 69f 58f
9:40pm  -   -   -  4 7 mph 1026.5mb 69f 58f
9:30pm  -   -   -  4 7 mph 1026.3mb 69f 58f
9:20pm  -   -   -  4 9 mph 1026mb 69f 58f
9:10pm  -   -   -  4 9 mph 1026mb 69f 58f
9:00pm  -   -   -  7 9 mph 1025.8mb 69f 58f
8:50pm 3ft 9s 6s 7 9 mph 1025.8mb 69f 58f
8:40pm  -   -   -  4 9 mph 1025.5mb 69f 58f
8:30pm  -   -   -  4 7 mph 1025.5mb 69f 58f
8:20pm  -   -   -  4 7 mph 1025.5mb 69f 58f
8:10pm  -   -   -  4 9 mph 1025.3mb 69f 58f
8:00pm  -   -   -  7 9 mph 1025.3mb 69f 58f
7:50pm 2.5ft 9s 6s 2 7 mph 1025.2mb 69f 57f
7:40pm 2.5ft  -  6s 2 4 mph 1025mb 69f 57f
7:30pm  -   -   -  2 4 mph 1025mb 69f 57f
7:20pm  -   -   -  2 4 mph 1025mb 69f 57f
7:10pm  -   -   -   -  4 mph 1024.8mb 69f 57f
7:00pm  -   -   -  2 4 mph 1024.5mb 69f 57f
6:50pm 3ft 9s 6s 2 4 mph 1024.5mb 69f 57f
6:40pm  -   -   -  4 11 mph 1024.3mb 69f 56f
6:30pm  -   -   -  2 7 mph 1024.3mb - -
6:20pm  -   -   -  4 9 mph 1024mb 69f 56f
6:10pm  -   -   -  2 4 mph 1023.9mb 69f 56f
6:00pm  -   -   -  4 7 mph 1023.6mb 69f 56f
5:50pm 3ft 10s 5s 4 7 mph 1023.4mb 69f 56f
5:40pm  -   -   -  4 7 mph 1023.4mb 69f 56f
5:30pm  -   -   -  4 9 mph 1023.1mb 69f 56f
5:20pm  -   -   -  4 7 mph 1023mb 69f 56f
5:10pm  -   -   -  4 9 mph 1023.1mb 69f 56f
5:00pm  -   -   -  4 7 mph 1023mb 69f 56f
4:50pm 3.5ft 9s 5s 4 9 mph 1022.9mb 69f 56f
4:40pm 3.5ft  -  5s 7 9 mph 1023mb 69f 56f
4:30pm  -   -   -  7 11 mph 1023mb 69f 56f
4:20pm  -   -   -  7 11 mph 1022.9mb 69f 56f
4:10pm  -   -   -  7 11 mph 1022.9mb 69f 56f
4:00pm  -   -   -  7 11 mph 1023mb 69f 55f
3:50pm 3.5ft 9s 5s 9 11 mph 1022.9mb 69f 55f
3:40pm 3.5ft  -  5s 7 13 mph 1022.9mb 69f 55f
3:30pm  -   -   -  7 11 mph 1022.9mb 69f 55f
3:20pm  -   -   -  7 11 mph 1022.8mb 69f 55f
3:10pm  -   -   -  7 11 mph 1022.8mb 69f 55f
3:00pm  -   -   -  4 7 mph 1022.6mb 70f 55f
2:50pm 3.5ft 9s 5s 2 7 mph 1022.5mb 70f 55f
2:40pm 3.5ft  -  5s 4 9 mph 1022.5mb 69f 55f
2:30pm  -   -   -  4 9 mph 1022.4mb 70f 54f
2:20pm  -   -   -  4 9 mph 1022.3mb 70f 54f
2:10pm  -   -   -  7 11 mph 1022.3mb 70f 54f
2:00pm  -   -   -  4 9 mph 1022.1mb 70f 54f
1:50pm 3.5ft 9s 5s 7 9 mph 1022.1mb 70f 54f
1:40pm 3.5ft  -  5s 7 9 mph 1022mb 70f 54f
1:30pm  -   -   -  7 9 mph 1022.3mb 70f 54f
1:20pm  -   -   -  7 11 mph 1022.3mb 70f 53f
1:10pm  -   -   -  7 11 mph 1022.3mb 70f 54f
1:00pm  -   -   -  7 11 mph 1022.4mb 70f 53f
12:50pm 3.5ft 9s 5s 7 13 mph 1022.4mb 70f 53f
12:40pm  -   -   -  9 11 mph 1022.5mb 70f 53f
12:30pm  -   -   -  9 13 mph 1022.4mb 70f 53f
12:20pm  -   -   -  11 13 mph 1022.4mb 70f 53f
12:10pm  -   -   -  11 16 mph 1022.5mb 70f 53f
12:00pm  -   -   -  11 16 mph 1022.5mb 70f 53f
11:50am 4ft 10s 5s 11 16 mph 1022.5mb 70f 53f
11:40am  -   -   -  11 16 mph 1022.6mb 70f 53f
11:30am  -   -   -  11 16 mph 1022.5mb 70f 53f
11:20am  -   -   -  11 16 mph 1022.5mb 70f 53f
11:10am  -   -   -  13 18 mph 1022.9mb 70f 53f
11:00am  -   -   -  13 18 mph 1022.9mb 70f 53f
10:50am 4.5ft 10s 5s 13 20 mph 1022.5mb 70f 53f
10:40am  -   -   -  13 18 mph 1022.4mb 70f 53f
10:30am  -   -   -  13 18 mph 1022.4mb 70f 53f
10:20am  -   -   -  16 20 mph 1022.3mb 70f 53f
10:10am  -   -   -  16 20 mph 1022.1mb 70f 53f
10:00am  -   -   -  16 20 mph 1022mb 70f 53f
9:50am 5ft 9s 5s 16 20 mph 1022mb 70f 53f
9:40am 5ft  -  5s 16 25 mph 1021.8mb 70f 53f
9:30am  -   -   -  16 22 mph 1021.5mb 70f 54f
9:20am  -   -   -  16 22 mph 1021.4mb 70f 54f
9:10am  -   -   -  18 25 mph 1021.1mb 70f 54f
9:00am  -   -   -  18 22 mph 1020.9mb 70f 54f
8:50am 5ft 5s 5s 18 25 mph 1020.6mb 70f 54f
8:40am  -   -   -  18 22 mph 1020.5mb 70f 54f
8:30am  -   -   -  18 22 mph 1020.1mb 70f 54f
8:20am  -   -   -  18 22 mph 1020.3mb 70f 55f
8:10am  -   -   -  18 25 mph 1020mb 70f 55f
8:00am  -   -   -  18 22 mph 1019.9mb 70f 55f
7:50am 5ft 5s 5s 18 25 mph 1019.5mb 70f 55f
7:40am  -   -   -  18 25 mph 1019.5mb 70f 56f
7:30am  -   -   -  20 25 mph 1019.3mb 70f 55f
7:20am  -   -   -  18 25 mph 1019mb 70f 56f
7:10am  -   -   -  20 27 mph 1018.6mb 69f 56f
7:00am  -   -   -  20 25 mph 1018.5mb 69f 56f
6:50am 5ft 5s 5s 20 27 mph 1018.3mb 69f 57f
6:40am  -   -   -  22 27 mph 1018mb 69f 57f
6:30am  -   -   -  22 27 mph 1017.6mb 69f 57f
6:20am  -   -   -  22 27 mph 1017.5mb 69f 57f
6:10am  -   -   -  22 29 mph 1017.3mb 69f 58f
6:00am  -   -   -  22 27 mph 1017mb 69f 58f
5:50am 5ft 10s 5s 22 29 mph 1017mb 69f 58f
5:40am 5ft  -  5s 20 27 mph 1016.5mb 69f 58f
5:30am  -   -   -  20 25 mph 1016.3mb 69f 58f
5:20am  -   -   -  22 27 mph 1016mb 69f 58f
5:10am  -   -   -  22 29 mph 1016mb 69f 59f
5:00am  -   -   -  25 29 mph 1015.6mb 69f 59f
4:50am 5ft 10s 5s 25 29 mph 1015.5mb 69f 59f
4:40am 5ft  -  5s 22 29 mph 1015mb 69f 60f
4:30am  -   -   -  22 29 mph 1014.9mb 69f 60f
4:20am  -   -   -  22 29 mph 1014.6mb 69f 61f
4:10am  -   -   -  25 29 mph 1014.5mb 69f 61f
4:00am  -   -   -  25 31 mph 1014.4mb 69f 61f
3:50am 5ft 10s 5s 25 31 mph 1014mb 69f 61f
3:40am  -   -   -  22 29 mph 1014mb 69f 62f
3:30am  -   -   -  22 27 mph 1014mb 69f 62f
3:20am  -   -   -  22 29 mph 1013.5mb 69f 62f
3:10am  -   -   -  22 29 mph 1013.4mb 69f 62f
3:00am  -   -   -  25 31 mph 1013.3mb 69f 63f
2:50am 5.5ft 7s 5s 25 31 mph 1013.3mb 69f 63f
2:40am  -   -   -  25 34 mph 1013.1mb 69f 64f
2:30am  -   -   -  27 34 mph 1012.9mb 69f 64f
2:20am  -   -   -  27 34 mph 1012.6mb 69f 64f
2:10am  -   -   -  27 34 mph 1012.5mb 69f 64f
2:00am  -   -   -  27 31 mph 1012.6mb 69f 65f
1:50am 5.5ft 7s 5s 25 31 mph 1012.6mb 69f 65f
1:40am 5.5ft  -  5s 22 31 mph 1012.5mb - 65f
1:30am  -   -   -  22 31 mph 1012.5mb 69f 65f
1:20am  -   -   -  22 27 mph 1012.3mb 69f 65f
1:10am  -   -   -  22 29 mph 1012.1mb 69f 66f
1:00am  -   -   -  25 29 mph 1012mb 69f 66f
12:50am 6.5ft 9s 5s 22 29 mph 1011.9mb 69f 66f
12:40am 6.5ft  -  5s 22 29 mph 1011.6mb 69f 66f
12:30am  -   -   -  27 34 mph 1011.5mb 69f 67f
12:20am  -   -   -  25 34 mph 1011.3mb 69f 67f
12:10am  -   -   -  27 36 mph 1011mb 69f 67f
12:00am  -   -   -  25 29 mph 1011mb 69f 67f
Sat 02/25 11:50pm 7ft 6s 5s 25 31 mph 1010.8mb 69f 68f
11:40pm  -   -   -  25 31 mph 1010.5mb 69f 68f
11:30pm  -   -   -  27 34 mph 1010.5mb 69f 68f
11:20pm  -   -   -  27 34 mph 1010.3mb 69f 68f
11:10pm  -   -   -  27 34 mph 1010.3mb 69f 68f
11:00pm  -   -   -  27 34 mph 1010mb 69f 68f
10:50pm 7ft 6s 5s 27 31 mph 1009.9mb 69f 69f
10:40pm 7ft  -  5s 25 31 mph 1009.5mb 69f 69f
10:30pm  -   -   -  25 31 mph 1009.4mb 69f 70f
10:20pm  -   -   -  25 29 mph 1009.4mb 70f 71f
10:10pm  -   -   -  22 31 mph 1009.3mb 70f 71f
10:00pm  -   -   -  25 29 mph 1008.9mb 70f 71f
9:50pm 7ft 6s 5s 27 34 mph 1008.6mb 71f 71f
9:40pm 7ft  -  5s 27 34 mph 1008.5mb 71f 71f
9:30pm  -   -   -  25 31 mph 1008.4mb 71f 71f
9:20pm  -   -   -  25 31 mph 1008.3mb 71f 71f
9:10pm  -   -   -  27 34 mph 1008.1mb 71f 71f
9:00pm  -   -   -  25 31 mph 1008mb 72f 71f
8:50pm 7.5ft 6s 5s 27 34 mph 1007.9mb 72f 71f
8:40pm  -   -   -  27 34 mph 1007.6mb 72f 72f
8:30pm  -   -   -  27 34 mph 1007.5mb 72f 72f
8:20pm  -   -   -  27 34 mph 1007.4mb 72f 72f
8:10pm  -   -   -  27 34 mph 1007.1mb 72f 72f
8:00pm  -   -   -  27 34 mph 1007.1mb 72f 72f
7:50pm 7.5ft 6s 5s 27 31 mph 1007mb 72f 72f
7:40pm 7.5ft  -  5s 27 34 mph 1006.9mb 72f 72f
7:30pm  -   -   -  27 36 mph 1006.6mb 72f -
7:20pm  -   -   -  29 36 mph 1006.5mb 72f 72f
7:10pm  -   -   -  29 36 mph 1006.5mb 72f 72f
7:00pm  -   -   -  29 36 mph 1006.3mb 73f 72f
6:50pm 6.5ft 11s 5s 29 36 mph 1006.3mb 73f 72f
6:40pm 6.5ft  -  5s 29 36 mph 1006.1mb 73f 72f
6:30pm  -   -   -  29 36 mph 1006mb 73f 72f
6:20pm  -   -   -  29 34 mph 1006mb 73f 72f
6:10pm  -   -   -  29 36 mph 1006mb 73f 72f
6:00pm  -   -   -  27 36 mph 1005.9mb 73f 72f